Tracking 28790 objects as of 18-Apr-2024
HD Live streaming from Space Station
objects crossing your sky now

SL-8 R/B

Track SL-8 R/B now!
10-day predictions


NORAD ID: 11586
Int'l Code: 1979-090B
Perigee: 953.3 km
Apogee: 994.7 km
Inclination: 82.9 °
Period: 104.4 minutes
Semi major axis: 7345 km
RCS: 5.15 m2 (large)
Launch date: October 16, 1979
Source: Commonwealth of Independent States (former USSR) (CIS)
Launch site: PLESETSK MISSILE AND SPACE COMPLEX (PKMTR)

Note: This is a ROCKET BODY
Your satellite tracking list
Your tracking list is empty




NASA's NSSDC Master Catalog

Two Line Element Set (TLE):
1 11586U 79090B   24109.26654247  .00000137  00000-0  11883-3 0  9993
2 11586  82.9487  11.0590 0028151  45.4778 314.8673 13.79158022239294
Source of the keplerian elements: AFSPC